Location: Bohy
(49.9380°N, 13.5753°E)
Time: 00:37:32
(UTC+00:00)

Cosmos 2219 Rocket - Pass Details

Date: 19 May 2025
Orbit: 828 x 844 km, 71.0° (Epoch: 15 June)

Event Time Altitude Azimuth Distance (km) Brightness Sun altitude
Rises 22:20:28 0° 333° (NNW) 3,401 6.7 -19.5°
Reaches altitude 10° 22:23:06 10° 341° (NNW) 2,460 5.8 -19.5°
Maximum altitude 22:28:22 39° 50° (NE) 1,231 3.3 -19.7°
Enters shadow 22:32:35 15° 114° (ESE) 2,101 4.0 -19.8°
